This is the latest recevied weather packets stored in our database for station/object JH5EWP-13. If no packets are shown the sender has not sent any weather packets the latest 10 day(s).
| Time | Temp. | Humidity | Pressure | Rain* | Wind** | Luminosity | Snow |
|---|---|---|---|---|---|---|---|
| 1777581856 | 14.44° C | 92% | 996.9 hPa | 0.25 mm | - | - | - |
| 1777580955 | 14.44° C | 91% | 996.4 hPa | 0.51 mm | - | - | - |
| 1777580055 | 14.44° C | 91% | 996.4 hPa | 1.02 mm | - | - | - |
| 1777579155 | 14.44° C | 91% | 996.1 hPa | 1.02 mm | - | - | - |
| 1777578256 | 14.44° C | 91% | 996 hPa | 1.02 mm | - | - | - |
| 1777577356 | 14.44° C | 91% | 996 hPa | 1.02 mm | - | - | - |
| 1777576456 | 14.44° C | 90% | 995.6 hPa | 0.76 mm | - | - | - |
| 1777575556 | 14.44° C | 90% | 995.2 hPa | 1.02 mm | - | - | - |
| 1777574656 | 14.44° C | 90% | 995.4 hPa | 2.03 mm | - | - | - |
| 1777573756 | 14.44° C | 90% | 995.5 hPa | 5.33 mm | - | - | - |
| 1777572856 | 14.44° C | 90% | 995.2 hPa | 5.08 mm | - | - | - |
| 1777571956 | 14.44° C | 89% | 995.5 hPa | 4.57 mm | - | - | - |
| 1777571056 | 13.89° C | 88% | 995.2 hPa | 3.56 mm | - | - | - |
| 1777570156 | 14.44° C | 88% | 994.6 hPa | 0 mm | - | - | - |
| 1777569255 | 13.89° C | 88% | 994.5 hPa | 0 mm | - | - | - |
| 1777568355 | 14.44° C | 88% | 994.7 hPa | 0 mm | - | - | - |
| 1777567456 | 14.44° C | 88% | 995.1 hPa | 0 mm | - | - | - |
| 1777566556 | 14.44° C | 88% | 995.3 hPa | 0 mm | - | - | - |
| 1777565656 | 14.44° C | 88% | 995.9 hPa | 0 mm | - | - | - |
| 1777564756 | 14.44° C | 87% | 996.2 hPa | 0 mm | - | - | - |
| 1777563856 | 14.44° C | 87% | 996.2 hPa | 0 mm | - | - | - |
| 1777562955 | 14.44° C | 87% | 996.4 hPa | 0 mm | - | - | - |
| 1777562057 | 14.44° C | 87% | 996.9 hPa | 0 mm | - | - | - |
| 1777561157 | 14.44° C | 87% | 996.8 hPa | 0 mm | - | - | - |
| 1777560257 | 14.44° C | 87% | 997.1 hPa | 0 mm | - | - | - |
* Rain latest hour (hover to see other rain measurements)
** Current wind speed in m/s (hover to see current wind gust speed)